Miscellaneous Local Product
Issued by NWS Hastings, NE

Home | Current Version | Previous Version | Graphics & Text | Print | Product List | Glossary On
Versions: 1 2 3 4 5 6 7 8 9 10 11 12 13 14 15 16 17 18 19 20 21 22 23 24 25 26 27 28 29 30 31 32 33 34 35 36 37 38 39 40 41 42 43 44 45 46 47 48 49 50
000
AXUS43 KGID 181402
MISGRI

GID CWA HOURLY WEATHER ROUNDUP
NATIONAL WEATHER SERVICE HASTINGS NE
900 AM CDT MON AUG 18 2014

NOTE: "FAIR" INDICATES FEW OR NO CLOUDS BELOW 12,000 FEET WITH NO
SIGNIFICANT WEATHER AND/OR OBSTRUCTIONS TO VISIBILITY.

...SOUTH CENTRAL NEBRASKA...

CITY           SKY/WX    TMP DP  RH WIND       PRES   REMARKS
GRAND ISLAND   SUNNY     71  61  70 NW6       29.94R
HASTINGS       SUNNY     68  59  73 NW3       29.93S
KEARNEY        SUNNY     66  61  82 W7        29.94S
ORD            SUNNY     65  60  84 CALM      29.92F
AURORA         SUNNY     69  64  84 CALM      29.93S
LEXINGTON      SUNNY     66  62  86 CALM      29.95F
HOLDREGE       SUNNY     66  61  84 CALM      29.95S
HEBRON         SUNNY     68  61  76 CALM      29.93R

...NEBRASKA PANHANDLE...

CITY           SKY/WX    TMP DP  RH WIND       PRES   REMARKS
CHADRON        SUNNY     64  60  87 SW7       30.01S
ALLIANCE       SUNNY     64  58  80 CALM      30.02S
SCOTTSBLUFF    SUNNY     64  58  80 NW9       30.05S
SIDNEY         CLOUDY    61  59  93 N8        30.05F FOG

...WESTERN AND NORTH CENTRAL NEBRASKA...

CITY           SKY/WX    TMP DP  RH WIND       PRES   REMARKS
VALENTINE      SUNNY     68  60  75 SW5       29.93S
AINSWORTH      MOSUNNY   65  59  78 W6        29.94S
ONEILL         SUNNY     70  60  71 W6        29.91F
BROKEN BOW     SUNNY     68  63  84 CALM      29.95F
IMPERIAL       SUNNY     63  56  78 W3        29.98R
NORTH PLATTE   SUNNY     66  58  75 NE3       29.97R
MCCOOK         SUNNY     69  59  70 NE6       29.94S

...EASTERN NEBRASKA...

CITY           SKY/WX    TMP DP  RH WIND       PRES   REMARKS
NORFOLK        SUNNY     71  59  65 W9        29.90S
SO SIOUX CITY  SUNNY     71  65  81 W5        29.86R
TEKAMAH        SUNNY     72  64  76 S7        29.88R
COLUMBUS       SUNNY     68  59  73 W7        29.92R
ALBION         SUNNY     68  59  73 CALM      29.91F
OMAHA EPPLEY   MOSUNNY   72  64  76 S8        29.89R
MILLARD        SUNNY     73  65  76 S3        29.89S
LINCOLN        SUNNY     69  62  78 SW3       29.91S
NEBRASKA CITY  SUNNY     71  65  80 CALM      29.91S
BEATRICE       SUNNY     69  64  84 CALM      29.91F
FALLS CITY     SUNNY     72  66  81 NW6       29.91S

...NORTHERN KANSAS...

CITY           SKY/WX    TMP DP  RH WIND       PRES   REMARKS
GOODLAND       SUNNY     70  58  65 SW13      29.98S
HILL CITY      SUNNY     69  61  75 CALM      29.92S
NORTON         SUNNY     68  55  64 CALM      29.93S
PHILLIPSBURG   SUNNY     66  61  82 CALM      29.92F
BELOIT         SUNNY     70  64  83 N8        29.91S
HAYS           SUNNY     70  61  73 CALM      29.91S
RUSSELL        SUNNY     73  63  70 S6        29.89S
CONCORDIA      SUNNY     69  65  86 CALM      29.93R
SALINA         SUNNY     73  64  73 NE3       29.91R
TOPEKA         MOSUNNY   74  67  78 W5        29.90F



USA.gov is the U.S. government's official web portal to all federal, state and local government web resources and services.